Regional Weather Roundup
Issued by NWS State College, PA

Home | Current Version | Previous Version | Graphics & Text | Print | Product List | Glossary Off
Versions: 1 2 3 4 5 6 7 8 9 10 11 12 13 14 15 16 17 18 19 20 21 22 23 24 25 26 27 28 29 30 31 32 33 34 35 36 37 38 39 40 41 42 43 44 45 46 47 48 49 50

000
ASUS41 KCTP 021710
RWRCTP

REGIONAL WEATHER ROUNDUP
NATIONAL WEATHER SERVICE STATE COLLEGE PA
100 PM EDT WED SEP 02 2015

Note: "fair" indicates few or no clouds below 12,000 feet with no
significant weather and/or obstructions to visibility.

* = STATION THAT DOES NOT REPORT PRECIPITATION /E.G. RAIN...SNOW...ETC/
    THUNDER OR FOG.

PAZ002>004-007>009-013>016-020>023-029>032-021800-
WESTERN PENNSYLVANIA

CITY           SKY/WX    TMP DP  RH WIND       PRES   REMARKS
ERIE           MOSUNNY   81  69  67 NW9       30.05F
MEADVILLE      SUNNY     82  66  58 W6        30.09F
FRANKLIN*      PTSUNNY   82  66  57 W3        30.11F
NEW CASTLE     FAIR      87  68  53 CALM      30.08F
BEAVER COUNTY  PTSUNNY   84  64  51 NW6       30.09F
BUTLER*        MOSUNNY   84  66  54 W8        30.10F
PITTSBURGH INT MOSUNNY   86  64  47 NW13      30.08F
PITTSBURGH     MOSUNNY   76  64  66 S7        30.08F
INDIANA*       MOSUNNY   84  66  54 W8G14     30.11F
LATROBE        MOSUNNY   84  68  58 W12       30.09F
WASHINGTON CO* MOSUNNY   84  66  54 W9        30.10F
$$

PAZ004>006-010>012-017>019-024>028-033>037-041-042-045-046-049>053-021800-
CENTRAL PENNSYLVANIA

CITY           SKY/WX    TMP DP  RH WIND       PRES   REMARKS
BRADFORD       SUNNY     81  63  54 W7        30.11F
DUBOIS         PTSUNNY   85  64  49 W8        30.09F
CLEARFIELD     MOSUNNY   84  63  49 VRB6      30.08F
JOHNSTOWN      MOSUNNY   83  63  50 NW12      30.12F
ALTOONA          N/A    N/A N/A N/A MISG      30.08F
STATE COLLEGE  MOSUNNY   84  66  54 CALM      30.07F
WILLIAMSPORT   SUNNY     82  66  58 SW5       30.01F
SELINSGROVE    SUNNY     85  68  56 VRB5      30.02F
FT INDIANTOWN  MOSUNNY   85  65  51 N7        30.01F
CAPITAL CITY   SUNNY     87  64  46 N5        30.01F
HARRISBURG     SUNNY     89  63  41 NW10      30.00F
YORK           SUNNY     86  68  54 N8        30.02F
$$

PAZ038>040-043-044-047-048-054-055-060>062-067>071-021800-
EASTERN PENNSYLVANIA

CITY           SKY/WX    TMP DP  RH WIND       PRES   REMARKS
SCRANTON       SUNNY     85  65  51 W9        30.02F
MOUNT POCONO   MOSUNNY   82  62  50 VRB3      30.07F
ALLENTOWN      SUNNY     88  67  49 CALM      29.99F
QUAKERTOWN*    MOSUNNY   86  66  51 NW5       30.01F
READING        SUNNY     86  66  51 W6        29.99F
LANCASTER      SUNNY     86  63  45 NW12      30.01F
COATESVILLE    MOSUNNY   86  64  48 NW12      30.02F
POTTSTOWN      MOSUNNY   85  66  53 VRB3      30.01F
BLUE BELL      MOSUNNY   88  68  51 W3        29.99F
DOYLESTOWN     MOSUNNY   84  64  50 SW5       29.99F
WILLOW GROVE   NOT AVBL
NORTH PHILA    PTSUNNY   87  66  49 CALM      30.00F
PHILADELPHIA   CLOUDY    88  64  44 W7        29.99F
$$



USA.gov is the U.S. government's official web portal to all federal, state and local government web resources and services.